Time,TemperatureF,DewpointF,PressureIn,WindDirection,WindDirectionDegrees,WindSpeedMPH,WindSpeedGustMPH,Humidity,HourlyPrecipIn,Conditions,Clouds,dailyrainin,SoftwareType,DateUTC
2013-05-25 00:06:00,68.8,53.0,29.85,NW,305,3.0,-999.0,57,-99.99,,,0.00,weatherlink.com 1.10,2013-05-24 21:06:00,
2013-05-25 00:21:00,68.6,53.0,29.84,NW,325,0.0,-999.0,57,-99.99,,,0.00,weatherlink.com 1.10,2013-05-24 21:21:00,
2013-05-25 00:36:00,68.3,53.0,29.85,SSW,196,0.0,-999.0,58,-99.99,,,0.00,weatherlink.com 1.10,2013-05-24 21:36:00,
2013-05-25 00:51:00,68.1,53.0,29.85,SW,219,0.0,-999.0,58,-99.99,,,0.00,weatherlink.com 1.10,2013-05-24 21:51:00,
2013-05-25 01:06:00,67.8,68.0,29.85,WSW,237,2.0,-999.0,100,-99.99,,,0.00,weatherlink.com 1.10,2013-05-24 22:06:00,
2013-05-25 01:21:00,67.6,68.0,29.85,WNW,302,1.0,-999.0,100,-99.99,,,0.00,weatherlink.com 1.10,2013-05-24 22:21:00,
2013-05-25 01:36:00,67.3,67.0,29.85,SSW,210,3.0,-999.0,100,-99.99,,,0.00,weatherlink.com 1.10,2013-05-24 22:36:00,
2013-05-25 01:51:00,67.1,67.0,29.85,South,189,0.0,-999.0,100,-99.99,,,0.00,weatherlink.com 1.10,2013-05-24 22:51:00,
2013-05-25 02:06:00,66.4,66.0,29.85,SSW,212,7.0,-999.0,100,-99.99,,,0.00,weatherlink.com 1.10,2013-05-24 23:06:00,
2013-05-25 02:21:00,66.0,66.0,29.85,WSW,240,2.0,-999.0,100,-99.99,,,0.00,weatherlink.com 1.10,2013-05-24 23:21:00,
2013-05-25 02:36:00,65.8,66.0,29.85,SSW,209,11.0,-999.0,100,-99.99,,,0.00,weatherlink.com 1.10,2013-05-24 23:36:00,
2013-05-25 02:52:00,65.8,66.0,29.85,SW,224,5.0,-999.0,100,-99.99,,,0.00,weatherlink.com 1.10,2013-05-24 23:52:00,
2013-05-25 03:07:00,65.8,66.0,29.86,SW,220,6.0,-999.0,100,-99.99,,,0.00,weatherlink.com 1.10,2013-05-25 00:07:00,
2013-05-25 03:22:00,65.8,66.0,29.86,SW,217,2.0,-999.0,100,-99.99,,,0.00,weatherlink.com 1.10,2013-05-25 00:22:00,
2013-05-25 03:37:00,65.6,66.0,29.86,South,186,5.0,-999.0,100,-99.99,,,0.00,weatherlink.com 1.10,2013-05-25 00:37:00,
2013-05-25 03:52:00,65.2,58.0,29.86,South,172,5.0,-999.0,77,-99.99,,,0.00,weatherlink.com 1.10,2013-05-25 00:52:00,
2013-05-25 04:07:00,64.7,65.0,29.86,SW,215,5.0,-999.0,100,-99.99,,,0.00,weatherlink.com 1.10,2013-05-25 01:07:00,
2013-05-25 04:22:00,64.2,64.0,29.86,South,181,14.0,-999.0,100,-99.99,,,0.00,weatherlink.com 1.10,2013-05-25 01:22:00,
2013-05-25 04:37:00,63.9,64.0,29.86,SSW,193,2.0,-999.0,100,-99.99,,,0.00,weatherlink.com 1.10,2013-05-25 01:37:00,
2013-05-25 04:52:00,63.9,64.0,29.85,SW,227,5.0,-999.0,100,-99.99,,,0.00,weatherlink.com 1.10,2013-05-25 01:52:00,
2013-05-25 05:07:00,64.2,64.0,29.85,SW,220,2.0,-999.0,100,-99.99,,,0.00,weatherlink.com 1.10,2013-05-25 02:07:00,
2013-05-25 05:22:00,64.5,65.0,29.85,SW,234,8.0,-999.0,100,-99.99,,,0.00,weatherlink.com 1.10,2013-05-25 02:22:00,
2013-05-25 05:37:00,64.5,65.0,29.86,WSW,241,4.0,-999.0,100,-99.99,,,0.00,weatherlink.com 1.10,2013-05-25 02:37:00,
2013-05-25 05:52:00,64.3,64.0,29.86,SW,233,6.0,-999.0,100,-99.99,,,0.00,weatherlink.com 1.10,2013-05-25 02:52:00,
2013-05-25 06:07:00,64.7,65.0,29.85,SW,224,6.0,-999.0,100,-99.99,,,0.00,weatherlink.com 1.10,2013-05-25 03:07:00,
2013-05-25 06:22:00,65.6,66.0,29.86,SSW,213,8.0,-999.0,100,-99.99,,,0.00,weatherlink.com 1.10,2013-05-25 03:22:00,
2013-05-25 06:37:00,66.8,67.0,29.86,West,277,5.0,-999.0,100,-99.99,,,0.00,weatherlink.com 1.10,2013-05-25 03:37:00,
2013-05-25 06:52:00,67.6,68.0,29.86,SW,217,9.0,-999.0,100,-99.99,,,0.00,weatherlink.com 1.10,2013-05-25 03:52:00,
2013-05-25 07:07:00,68.8,69.0,29.86,WSW,257,1.0,-999.0,100,-99.99,,,0.00,weatherlink.com 1.10,2013-05-25 04:07:00,
2013-05-25 07:22:00,69.8,70.0,29.86,SSW,203,8.0,-999.0,100,-99.99,,,0.00,weatherlink.com 1.10,2013-05-25 04:22:00,
2013-05-25 07:37:00,70.8,71.0,29.86,South,191,7.0,-999.0,100,-99.99,,,0.00,weatherlink.com 1.10,2013-05-25 04:37:00,
2013-05-25 07:52:00,71.3,71.0,29.86,SW,222,10.0,-999.0,100,-99.99,,,0.00,weatherlink.com 1.10,2013-05-25 04:52:00,
2013-05-25 08:07:00,72.3,72.0,29.87,SW,232,12.0,-999.0,100,-99.99,,,0.00,weatherlink.com 1.10,2013-05-25 05:07:00,
2013-05-25 08:22:00,73.3,73.0,29.87,SSW,192,5.0,-999.0,100,-99.99,,,0.00,weatherlink.com 1.10,2013-05-25 05:22:00,
2013-05-25 08:37:00,74.2,74.0,29.87,SSW,195,3.0,-999.0,100,-99.99,,,0.00,weatherlink.com 1.10,2013-05-25 05:37:00,
2013-05-25 08:52:00,74.4,74.0,29.87,SW,215,6.0,-999.0,100,-99.99,,,0.00,weatherlink.com 1.10,2013-05-25 05:52:00,
2013-05-25 09:07:00,75.1,55.0,29.88,SW,222,10.0,-999.0,50,-99.99,,,0.00,weatherlink.com 1.10,2013-05-25 06:07:00,
2013-05-25 09:22:00,75.1,55.0,29.88,South,181,5.0,-999.0,50,-99.99,,,0.00,weatherlink.com 1.10,2013-05-25 06:22:00,
2013-05-25 09:37:00,74.9,54.0,29.88,SSW,199,5.0,-999.0,49,-99.99,,,0.00,weatherlink.com 1.10,2013-05-25 06:37:00,
2013-05-25 09:52:00,75.1,55.0,29.88,SW,215,2.0,-999.0,49,-99.99,,,0.00,weatherlink.com 1.10,2013-05-25 06:52:00,
2013-05-25 10:07:00,75.1,54.0,29.88,South,189,5.0,-999.0,48,-99.99,,,0.00,weatherlink.com 1.10,2013-05-25 07:07:00,
2013-05-25 10:22:00,75.4,54.0,29.88,SSW,209,6.0,-999.0,48,-99.99,,,0.00,weatherlink.com 1.10,2013-05-25 07:22:00,
2013-05-25 10:37:00,75.8,55.0,29.89,SW,217,5.0,-999.0,48,-99.99,,,0.00,weatherlink.com 1.10,2013-05-25 07:37:00,
2013-05-25 10:52:00,76.0,76.0,29.89,SSW,202,0.0,-999.0,100,-99.99,,,0.00,weatherlink.com 1.10,2013-05-25 07:52:00,
2013-05-25 11:07:00,76.7,54.0,29.88,SW,222,6.0,-999.0,46,-99.99,,,0.00,weatherlink.com 1.10,2013-05-25 08:07:00,
2013-05-25 11:22:00,77.2,77.0,29.88,WSW,243,5.0,-999.0,100,-99.99,,,0.00,weatherlink.com 1.10,2013-05-25 08:22:00,
2013-05-25 11:37:00,77.4,77.0,29.88,SW,234,11.0,-999.0,100,-99.99,,,0.00,weatherlink.com 1.10,2013-05-25 08:37:00,
2013-05-25 11:52:00,77.2,77.0,29.88,SW,223,3.0,-999.0,100,-99.99,,,0.00,weatherlink.com 1.10,2013-05-25 08:52:00,
2013-05-25 12:07:00,77.7,78.0,29.88,WSW,246,5.0,-999.0,100,-99.99,,,0.00,weatherlink.com 1.10,2013-05-25 09:07:00,
2013-05-25 12:22:00,77.7,78.0,29.88,SSW,213,2.0,-999.0,100,-99.99,,,0.00,weatherlink.com 1.10,2013-05-25 09:22:00,
2013-05-25 12:37:00,77.6,78.0,29.88,SSW,205,0.0,-999.0,100,-99.99,,,0.00,weatherlink.com 1.10,2013-05-25 09:37:00,
2013-05-25 12:52:00,78.1,78.0,29.88,WSW,243,2.0,-999.0,100,-99.99,,,0.00,weatherlink.com 1.10,2013-05-25 09:52:00,
2013-05-25 13:07:00,79.4,79.0,29.88,SW,232,1.0,-999.0,100,-99.99,,,0.00,weatherlink.com 1.10,2013-05-25 10:07:00,
2013-05-25 13:22:00,79.6,53.0,29.87,WSW,243,5.0,-999.0,40,-99.99,,,0.00,weatherlink.com 1.10,2013-05-25 10:22:00,
2013-05-25 13:37:00,79.4,53.0,29.87,South,191,5.0,-999.0,40,-99.99,,,0.00,weatherlink.com 1.10,2013-05-25 10:37:00,
2013-05-25 13:52:00,79.4,53.0,29.86,SSE,167,5.0,-999.0,40,-99.99,,,0.00,weatherlink.com 1.10,2013-05-25 10:52:00,
2013-05-25 14:07:00,79.2,52.0,29.86,WSW,258,5.0,-999.0,39,-99.99,,,0.00,weatherlink.com 1.10,2013-05-25 11:07:00,
2013-05-25 14:22:00,79.9,53.0,29.86,SW,232,6.0,-999.0,39,-99.99,,,0.00,weatherlink.com 1.10,2013-05-25 11:22:00,
2013-05-25 14:37:00,80.3,80.0,29.86,South,191,0.0,-999.0,100,-99.99,,,0.00,weatherlink.com 1.10,2013-05-25 11:37:00,
2013-05-25 14:52:00,80.7,81.0,29.86,SW,234,5.0,-999.0,100,-99.99,,,0.00,weatherlink.com 1.10,2013-05-25 11:52:00,
2013-05-25 15:07:00,80.9,81.0,29.85,SSW,192,0.0,-999.0,100,-99.99,,,0.00,weatherlink.com 1.10,2013-05-25 12:07:00,
2013-05-25 15:23:00,81.2,81.0,29.85,SW,223,2.0,-999.0,100,-99.99,,,0.00,weatherlink.com 1.10,2013-05-25 12:23:00,
2013-05-25 15:38:00,81.8,82.0,29.84,SSW,193,5.0,-999.0,100,-99.99,,,0.00,weatherlink.com 1.10,2013-05-25 12:38:00,
2013-05-25 15:53:00,81.6,82.0,29.84,SW,229,3.0,-999.0,100,-99.99,,,0.00,weatherlink.com 1.10,2013-05-25 12:53:00,
2013-05-25 16:08:00,81.6,82.0,29.84,South,174,5.0,-999.0,100,-99.99,,,0.00,weatherlink.com 1.10,2013-05-25 13:08:00,
2013-05-25 16:23:00,81.4,81.0,29.84,NNW,330,0.0,-999.0,100,-99.99,,,0.00,weatherlink.com 1.10,2013-05-25 13:23:00,
2013-05-25 16:38:00,81.8,82.0,29.83,South,189,2.0,-999.0,100,-99.99,,,0.00,weatherlink.com 1.10,2013-05-25 13:38:00,
2013-05-25 16:53:00,81.8,82.0,29.83,SSW,192,0.0,-999.0,100,-99.99,,,0.00,weatherlink.com 1.10,2013-05-25 13:53:00,
2013-05-25 17:08:00,82.0,82.0,29.83,SE,144,6.0,-999.0,100,-99.99,,,0.00,weatherlink.com 1.10,2013-05-25 14:08:00,
2013-05-25 17:23:00,82.0,82.0,29.83,SW,215,0.0,-999.0,100,-99.99,,,0.00,weatherlink.com 1.10,2013-05-25 14:23:00,
2013-05-25 17:38:00,82.4,82.0,29.82,SW,216,3.0,-999.0,100,-99.99,,,0.00,weatherlink.com 1.10,2013-05-25 14:38:00,
2013-05-25 17:53:00,82.4,82.0,29.82,WNW,302,2.0,-999.0,100,-99.99,,,0.00,weatherlink.com 1.10,2013-05-25 14:53:00,
2013-05-25 18:08:00,82.4,82.0,29.82,SSW,196,0.0,-999.0,100,-99.99,,,0.00,weatherlink.com 1.10,2013-05-25 15:08:00,
2013-05-25 18:23:00,82.2,82.0,29.82,SSE,148,0.0,-999.0,100,-99.99,,,0.00,weatherlink.com 1.10,2013-05-25 15:23:00,
2013-05-25 18:38:00,81.8,82.0,29.82,WNW,291,5.0,-999.0,100,-99.99,,,0.00,weatherlink.com 1.10,2013-05-25 15:38:00,
2013-05-25 18:53:00,79.9,80.0,29.82,West,281,6.0,-999.0,100,-99.99,,,0.00,weatherlink.com 1.10,2013-05-25 15:53:00,
2013-05-25 19:08:00,79.9,80.0,29.82,WNW,294,8.0,-999.0,100,-99.99,,,0.00,weatherlink.com 1.10,2013-05-25 16:08:00,
2013-05-25 19:23:00,79.2,79.0,29.82,West,281,5.0,-999.0,100,-99.99,,,0.00,weatherlink.com 1.10,2013-05-25 16:23:00,
2013-05-25 19:38:00,78.5,79.0,29.83,West,267,5.0,-999.0,100,-99.99,,,0.00,weatherlink.com 1.10,2013-05-25 16:38:00,
2013-05-25 19:53:00,77.6,78.0,29.83,NW,322,5.0,-999.0,100,-99.99,,,0.00,weatherlink.com 1.10,2013-05-25 16:53:00,
2013-05-25 20:08:00,76.3,76.0,29.84,WSW,243,2.0,-999.0,100,-99.99,,,0.00,weatherlink.com 1.10,2013-05-25 17:08:00,
2013-05-25 20:23:00,75.4,75.0,29.84,SSW,198,0.0,-999.0,100,-99.99,,,0.00,weatherlink.com 1.10,2013-05-25 17:23:00,
2013-05-25 20:38:00,74.6,75.0,29.84,SSW,209,4.0,-999.0,100,-99.99,,,0.00,weatherlink.com 1.10,2013-05-25 17:38:00,
2013-05-25 20:53:00,74.0,74.0,29.85,SSW,196,0.0,-999.0,100,-99.99,,,0.00,weatherlink.com 1.10,2013-05-25 17:53:00,
2013-05-25 21:08:00,73.5,74.0,29.85,NW,315,0.0,-999.0,100,-99.99,,,0.00,weatherlink.com 1.10,2013-05-25 18:08:00,
2013-05-25 21:23:00,73.0,73.0,29.86,SW,217,2.0,-999.0,100,-99.99,,,0.00,weatherlink.com 1.10,2013-05-25 18:23:00,
2013-05-25 21:38:00,72.5,73.0,29.86,South,174,0.0,-999.0,100,-99.99,,,0.00,weatherlink.com 1.10,2013-05-25 18:38:00,
2013-05-25 21:53:00,71.8,72.0,29.87,South,181,0.0,-999.0,100,-99.99,,,0.00,weatherlink.com 1.10,2013-05-25 18:53:00,
2013-05-25 22:08:00,70.9,71.0,29.87,WSW,239,0.0,-999.0,100,-99.99,,,0.00,weatherlink.com 1.10,2013-05-25 19:08:00,
2013-05-25 22:23:00,70.4,70.0,29.88,WNW,288,7.0,-999.0,100,-99.99,,,0.00,weatherlink.com 1.10,2013-05-25 19:23:00,
2013-05-25 22:38:00,70.8,71.0,29.88,SW,215,3.0,-999.0,100,-99.99,,,0.00,weatherlink.com 1.10,2013-05-25 19:38:00,
2013-05-25 22:53:00,71.1,71.0,29.88,West,277,0.0,-999.0,100,-99.99,,,0.00,weatherlink.com 1.10,2013-05-25 19:53:00,
2013-05-25 23:08:00,71.1,71.0,29.88,WNW,298,0.0,-999.0,100,-99.99,,,0.00,weatherlink.com 1.10,2013-05-25 20:08:00,
2013-05-25 23:23:00,70.8,71.0,29.88,SW,217,0.0,-999.0,100,-99.99,,,0.00,weatherlink.com 1.10,2013-05-25 20:23:00,
2013-05-25 23:38:00,70.4,70.0,29.88,WNW,288,5.0,-999.0,100,-99.99,,,0.00,weatherlink.com 1.10,2013-05-25 20:38:00,
2013-05-25 23:53:00,70.1,70.0,29.88,NNW,329,0.0,-999.0,100,-99.99,,,0.00,weatherlink.com 1.10,2013-05-25 20:53:00,